Zurück zum Katalog

ATLAS 5 CENTAUR DEB

LostHEO
NORAD 44011·DEBRIS·🇺🇸 United States

Gestartet Sep 17, 2014 von Cape Canaveral Space Force Station

Loading…

Nächste Überflüge (nächste 24 Stunden)

TLE

VeraltetSource: Space-Track

Epoche: Aug 12, 2025, 03:49 UTC

1 44011U 14055BS  25224.15971720 -.00000405  00000-0  00000+0 0  9991
2 44011  21.2837  94.6142 5197300 261.3078  39.0999  2.01721255 50451

Verfolge ATLAS 5 CENTAUR DEB in Echtzeit mit AllMySat

Download on the App Store